Regional Weather Roundup
Issued by NWS

Home | Current Version | Previous Version | Graphics & Text | Print | Product List | Glossary Off
Versions: 1 2 3 4 5 6 7 8 9 10 11 12 13 14 15 16 17 18 19 20 21 22 23 24 25 26 27 28 29 30 31 32 33 34 35 36 37 38 39 40 41 42 43 44 45 46 47 48 49 50

000
ASUS43 KTOP 191808
RWRKS

WEATHER ROUNDUP FOR KANSAS
NATIONAL WEATHER SERVICE GOODLAND KS
100 PM CDT THU OCT 19 2017

NOTE:  "FAIR" INDICATES FEW OR NO CLOUDS BELOW 12,000 FEET WITH NO
SIGNIFICANT WEATHER AND/OR OBSTRUCTIONS TO VISIBILITY.

KSZ001>006-013>018-027>032-041>047-191900-
NORTHWEST KANSAS

CITY           SKY/WX    TMP DP  RH WIND       PRES   REMARKS
GOODLAND       FAIR      78  45  30 S16G28    30.03F HAZE
6HR MIN TEMP:  34; 6HR MAX TEMP:  78;

HAYS           FAIR      76  51  41 SE9       30.04F
HILL CITY      FAIR      78  48  34 SE9       30.04F
6HR MIN TEMP:  38; 6HR MAX TEMP:  78;

RUSSELL        FAIR      78  52  40 S10       30.03F
6HR MIN TEMP:  42; 6HR MAX TEMP:  78;

$$

KSZ061>065-074>080-084>089-191900-
SOUTHWEST KANSAS

CITY           SKY/WX    TMP DP  RH WIND       PRES   REMARKS
DODGE CITY     FAIR      78  43  28 MISG      30.06F
6HR MIN TEMP:  47; 6HR MAX TEMP:  78;

ELKHART          N/A     72  48  42 SE10        N/A
GARDEN CITY    FAIR      76  45  33 SE15      30.04F
6HR MIN TEMP:  45; 6HR MAX TEMP:  76;

GREAT BEND     FAIR      75  49  39 S16       30.06F
LIBERAL        FAIR      73  49  42 SE13      30.06F
PRATT          FAIR      73  45  36 S13       30.08F
6HR MIN TEMP:  44; 6HR MAX TEMP:  73;

$$

KSZ066>073-081>083-090>101-191900-
SOUTHEAST KANSAS

CITY           SKY/WX    TMP DP  RH WIND       PRES   REMARKS
CHANUTE        FAIR      75  53  46 S13       30.14F
6HR MIN TEMP:  49; 6HR MAX TEMP:  75;

COFFEYVILLE    FAIR      76  54  46 S14       30.14F
6HR MIN TEMP:  49; 6HR MAX TEMP:  76;

HUTCHINSON     FAIR      75  49  39 S12       30.08F
6HR MIN TEMP:  45; 6HR MAX TEMP:  75;

MEDICINE LODGE   N/A     72  47  40 S10       30.08F
NEWTON         FAIR      75  49  39 S14       30.10F
PARSONS        FAIR      75  52  44 SW10      30.15F
6HR MIN TEMP:  49; 6HR MAX TEMP:  75; 6HR PCP: TRACE;

WICHITA INTL   FAIR      74  50  42 S14       30.09F
6HR MIN TEMP:  50; 6HR MAX TEMP:  74;

WICHITA JABRA  FAIR      75  50  41 S10       30.09F
6HR MIN TEMP:  49; 6HR MAX TEMP:  75;

WICHITA MCCONL FAIR      76  48  37 SW12      30.10F
WINFIELD       FAIR      74  52  46 S12       30.12F
6HR MIN TEMP:  52; 6HR MAX TEMP:  74;

$$

KSZ007>012-019>026-033>040-048>060-102>105-191900-
NORTHEAST KANSAS

CITY           SKY/WX    TMP DP  RH WIND       PRES   REMARKS
CONCORDIA      FAIR      74  53  48 S9        30.05F
6HR MIN TEMP:  41; 6HR MAX TEMP:  74;

EMPORIA        FAIR      75  51  43 S9        30.10F
6HR MIN TEMP:  50; 6HR MAX TEMP:  75;

LAWRENCE       FAIR      74  53  48 S9        30.10F
6HR MIN TEMP:  44; 6HR MAX TEMP:  74;

MANHATTAN      FAIR      78  52  40 SW10      30.06F
6HR MIN TEMP:  43; 6HR MAX TEMP:  78;

MARYSVILLE     FAIR      73  54  49 S10       30.06F
OLATHE IND     FAIR      74  51  44 S10       30.12F
6HR MIN TEMP:  50; 6HR MAX TEMP:  75;

OLATHE EXE     FAIR      73  52  47 S9        30.12F
6HR MIN TEMP:  51; 6HR MAX TEMP:  73;

SALINA         FAIR      76  54  46 S13       30.06F
6HR MIN TEMP:  49; 6HR MAX TEMP:  76;

TOPEKA BILLARD FAIR      75  53  46 S8        30.09F
6HR MIN TEMP:  47; 6HR MAX TEMP:  75;

TOPEKA FORBES  FAIR      77  52  41 SW12      30.09F
6HR MIN TEMP:  49; 6HR MAX TEMP:  77;

$$



USA.gov is the U.S. government's official web portal to all federal, state and local government web resources and services.